Regional Weather Roundup
Issued by NWS Upton, NY

Current Version | Previous Version | Graphics & Text | Print | Product List | Glossary Off
Versions: 1 2 3 4 5 6 7 8 9 10 11 12 13 14 15 16 17 18 19 20 21 22 23 24 25 26 27 28 29 30 31 32 33 34 35 36 37 38 39 40 41 42 43 44 45 46 47 48 49 50

000
ASUS41 KOKX 260804
RWROKX

REGIONAL WEATHER ROUNDUP
NATIONAL WEATHER SERVICE NEW YORK NY
400 AM EDT TUE JUL 26 2016

NOTE: "FAIR" INDICATES FEW OR NO CLOUDS BELOW 12,000 FEET WITH NO
SIGNIFICANT WEATHER AND/OR OBSTRUCTIONS TO VISIBILITY.

NYZ071-072-176-178-NJZ106-104-260900-
NEW YORK CITY METRO AREA

CITY           SKY/WX    TMP DP  RH WIND       PRES   REMARKS
Central Park   CLEAR     72  69  90 W3        29.89S
LaGuardia APRT CLEAR     77  68  73 W7        29.86R
Kennedy INTL   CLEAR     75  69  81 W13       29.87S
Newark/Liberty CLEAR     74  69  85 W9        29.87R
Bronx Bot Gard   N/A     73  66  78 W7        29.88F
Wall St Helipt SUNNY     73  72  94 W7        29.88R
Teterboro      CLEAR     73  68  84 W5        29.86S
$$

NYZ177-179-078>081-260900-
LONG ISLAND NEW YORK

CITY           SKY/WX    TMP DP  RH WIND       PRES   REMARKS
Farmingdale    CLEAR     74  70  87 W10       29.86R
MacArthur/ISP  CLEAR     72  70  93 W8        29.84S
Shirley        CLEAR     72  70  93 W6        29.85R
Riverhead      NOT AVBL
Westhampton    CLEAR     72  69  90 W7        29.86R
Southhampton     N/A     72  70  94 NW6       29.80R
Bridgehampton    N/A     72  70  94 E1        29.83R
East Hampton   FAIR      73  70  91 W6        29.83R
Montauk          N/A     72  70  93 W5        29.84R
$$

NYZ052-065-067-260900-
HUDSON VALLEY

CITY           SKY/WX    TMP DP  RH WIND       PRES   REMARKS
White Plains   CLEAR     71  68  90 W8        29.86S
Newburgh       CLEAR     70  70 100 W9        29.89
Montgomery     CLEAR     69  67  93 SW6       29.88S
Poughkeepsie   CLEAR     72  68  87 VRB6      29.85S
Albany         CLEAR     70  67  90 CALM      29.84R
$$

NJZ001-105-106-008-010-013-015-019>022-104-260900-
NEW JERSEY

CITY           SKY/WX    TMP DP  RH WIND       PRES   REMARKS
Newark/Liberty CLEAR     74  69  85 W9        29.87R
Teterboro      CLEAR     73  68  84 W5        29.86S
Caldwell       CLEAR     71  69  93 CALM      29.88R
Morristown     CLEAR     70  66  88 SW3       29.88S
Somerville     FOG       69  67  93 CALM      29.87S VSB 1/2
Linden         FAIR      73  69  88 CALM      29.89S
Sussex         CLOUDY    68  68 100 SW3       29.90R
Abdover          N/A     68  66  93 SW3       29.91R
Trenton        CLEAR     72  69  90 W3        29.90S
Millville      CLEAR     72  70  93 CALM      29.89F
Atlantic City  CLEAR     73  70  90 W5        29.89F
Wrightstown    MOCLDY    72  72  98 W6        29.87S
Toms River     CLEAR     72  71  97 NW6       29.89F
Belmar         MOCLDY    72  71  97 W7        29.90S
$$

PAZ047>061-062-071-260900-
EASTERN PENNSYLVANIA

CITY           SKY/WX    TMP DP  RH WIND       PRES   REMARKS
Philadelphia   MOCLDY    75  73  93 NW7       29.91S
Allentown      CLEAR     66  64  93 SW5       29.92R FOG
Scranton       CLOUDY    69  67  93 SW7       29.93R
$$

CTZ002-004>006-009-010-012-RIZ004-006-007-MAZ004-011-015-260900-
SOUTHERN NEW ENGLAND
 IN CT

CITY           SKY/WX    TMP DP  RH WIND       PRES   REMARKS
Bradley INTL   CLEAR     69  65  86 VRB3      29.81S
Hartford       CLEAR     72  68  87 CALM      29.82S
Danbury        CLEAR     68  67  96 W6        29.88R
Wtrbury/Oxford   N/A     68  63  83 CALM      29.86F
Bridgeport     CLEAR     72  68  87 W6        29.83S
Meriden        CLEAR     69  66  90 CALM      29.83S
New Haven      CLEAR     71  68  90 VRB5      29.84R
Chester        FAIR      70  68  94 VRB3      29.84S
Groton         CLEAR     72  68  87 W5        29.82R
Wilimantic     NOT AVBL

 IN RI

CITY           SKY/WX    TMP DP  RH WIND       PRES   REMARKS
Providence     CLEAR     73  67  81 W8        29.80R
Block Island   CLEAR     69  68  96 W10       29.83R
Westerly       CLEAR     71  67  87 W6        29.82S
 IN MA

CITY           SKY/WX    TMP DP  RH WIND       PRES   REMARKS
Boston         CLEAR     78  67  68 W9        29.76R
Worchester     CLEAR     69  65  86 W9        29.83R
Westfield      CLEAR     67  65  93 CALM      29.82R
Provincetown   CLEAR     71  69  93 SW10      29.77R
Nantucket      CLEAR     72  69  90 W15       29.79R
$$

ANZ330-335-338-340-345-350-353-355-260900-
COASTAL MARINE OBSERVATIONS


STATION/POSITION TIME  SKY/WX   TEMP    WIND        PRES    VSBY  WAVE
                                AIR SEA DIR/SP/G                  HT/PER
                 (UTC)          (F)     (DEG/KT/KT) (MB)    (MI)  (FT/S)
NY HARB ENTRANCE 0650            73 73  280/ 12/ 14 1010.9          2/ 3
20S FIRE ISLAND  0650            74 73  280/ 12/ 16 1010.7          2/ 4
GREAT SOUTH BAY  0715            76 80  280/ 14/ 16   N/A
23 SSW MONTAUK P 0650            73 72  270/ 16/ 17 1010.1          3/ 5
15 E BARNEGAT LI 0722               75                N/A           3/ 5
HUDSON CANYON    0650            78 77              1010.3          3/ 5
KINGS POINT      0700            74 72              1010.9
EXECUTION ROCKS  0700            74     270/ 10/ 14   N/A
CENTRAL LI SOUND NOT AVBL
EASTERN LI SOUND 0700            70 68  280/  6/  8   N/A
ROBBINS REEF     0718            75     270/ 14/ 17 1010.6
$$


>>>>>>>>>>>>>>>>>>>>>>>>>>>> KEY <<<<<<<<<<<<<<<<<<<<<<<<<<<
>                                                          <
>     SKY/WX - Sky Condition/Present Weather               <
>     TMP    - Temperature in Fahrenheit                   <
>     DP     - Dew Point in Fahrenheit                     <
>     RH     - Relative Humidity in Percent                <
>     WIND   - Direction (from) and Speed in MPH           <
>     PRES   - Mean Sea Level Pressure (inches of Hg)      <
>     WCI    - Wind Chill Index                            <
>     VSB    - VISIBILITY IN MILES                         <
>     HX     - HEAT INDEX                                  <
>     TC     - TEMPERATURE IN CELSIUS                      <
>     VRB    - VARIABLE WIND DIRECTION                     <
>                                                          <
>>>>>>>>>>>>>>>>>>>>>>>>>>>> KEY <<<<<<<<<<<<<<<<<<<<<<<<<<<



USA.gov is the U.S. government's official web portal to all federal, state and local government web resources and services.